Theta_e
334 328 324 318 315 313 315 316 316 317 318 320 320 319 317 317 317 318 318 318 319 320 322 324 327 329 333 334 334 334 334 334 334 334 334 336 336 337 336 335 332 330 326 321 320 316 313 311 308 308 308 309 309 309 310 311 311 312 312 313 313 315 317 317 318 317 316 316 315 313 312 313 313 313 314 314 314 314 314 314 314 314 314 314 314
338 332 325 318 315 313 315 316 317 318 319 321 320 318 317 317 318 319 319 320 321 323 325 328 331 333 334 334 334 335 335 335 334 334 334 336 336 336 336 335 333 333 328 321 318 314 311 311 308 307 308 308 309 310 310 311 311 312 312 313 314 315 315 316 316 315 315 314 313 312 312 313 313 313 314 314 314 314 314 314 314 314 314 314 314
342 334 324 319 314 314 316 317 318 319 320 320 319 318 316 318 319 321 322 325 327 329 330 332 334 334 334 335 335 335 335 335 334 335 336 336 336 336 336 335 335 335 332 323 316 314 312 309 308 307 308 308 309 309 311 311 312 313 313 314 314 314 315 315 315 315 314 313 312 312 312 313 313 314 314 314 314 314 314 314 314 314 315 315 315
344 335 325 318 313 314 316 317 318 320 321 320 318 317 317 319 321 323 325 328 330 332 333 333 334 334 334 335 335 335 335 335 335 336 336 337 337 336 336 335 335 334 334 325 314 313 312 309 308 307 308 309 309 310 312 313 314 314 315 315 315 315 315 315 315 315 314 313 312 313 313 313 313 314 314 314 314 314 314 315 315 315 315 316 316
344 338 328 317 313 315 316 318 320 321 320 319 318 317 319 321 323 325 328 329 331 332 333 333 334 335 335 335 335 336 335 335 335 335 336 337 337 337 336 335 335 334 333 327 316 312 312 309 308 308 308 309 310 312 314 315 316 316 317 317 317 317 317 316 315 314 314 314 314 313 313 313 313 314 314 314 314 314 314 315 315 316 316 316 317
344 340 330 317 313 316 317 319 321 321 320 319 317 319 322 323 325 327 329 330 331 333 332 333 334 334 335 335 335 335 335 335 335 335 335 336 336 336 336 335 334 333 331 327 318 312 311 310 309 308 309 310 312 313 314 316 317 318 318 319 319 318 317 316 315 315 315 314 314 313 313 313 313 313 314 314 314 315 314 315 315 316 316 316 317
343 337 327 315 314 316 318 320 322 322 321 319 319 321 324 325 327 328 329 330 331 332 332 333 334 335 335 335 335 335 335 335 335 335 334 334 334 334 335 334 334 332 328 322 316 312 311 310 309 309 309 311 313 313 315 316 318 319 320 321 320 320 319 318 317 316 316 316 315 314 313 313 313 313 314 315 315 314 314 315 315 316 316 317 317
338 332 322 314 315 316 319 321 323 323 321 320 321 324 326 328 328 329 330 330 331 331 332 333 334 334 335 335 334 334 334 334 333 333 332 331 329 330 329 329 331 328 323 317 313 312 311 310 309 310 310 312 313 314 316 318 319 320 321 322 322 323 323 322 321 319 320 318 316 315 314 314 313 313 313 314 314 315 315 315 315 316 316 317 317
335 328 319 314 314 317 321 322 324 323 322 323 323 326 328 329 329 330 330 330 331 331 331 332 333 334 335 335 334 334 332 331 329 328 326 324 322 322 320 318 319 317 315 314 312 312 311 310 310 310 312 313 314 316 317 319 320 320 321 322 323 324 324 324 323 321 321 319 317 317 317 315 313 313 313 313 314 314 315 315 315 315 316 316 316
334 326 317 314 315 319 322 323 324 324 324 324 326 329 330 330 329 330 330 330 330 331 331 331 333 334 334 333 332 330 328 326 324 322 320 318 315 314 312 311 310 311 312 312 312 312 311 311 310 311 312 313 315 316 317 318 319 321 322 322 323 324 323 321 320 318 318 317 319 321 320 315 312 313 312 313 314 314 314 315 315 316 316 316 316
332 324 316 313 316 320 323 324 325 325 325 326 328 330 331 331 330 330 330 330 330 331 331 331 332 331 330 329 328 326 324 322 320 318 315 312 310 309 308 308 308 310 311 311 313 313 310 311 310 311 312 313 314 315 316 318 320 321 322 322 322 323 322 319 317 316 317 319 321 323 321 317 314 312 312 313 313 314 314 314 315 315 316 316 316
329 322 315 314 317 320 323 326 326 326 327 328 330 331 331 331 331 330 331 332 331 331 331 330 329 329 328 327 325 322 320 318 316 313 310 309 308 308 308 308 308 310 310 312 314 312 310 311 311 311 311 312 313 315 317 318 320 321 322 323 323 324 323 321 319 316 317 318 322 324 324 321 316 312 312 313 313 313 314 314 315 316 316 316 316
328 321 314 315 318 321 324 326 327 328 328 330 331 331 332 332 331 331 331 332 332 331 330 329 328 327 326 324 321 318 315 313 312 309 308 308 308 308 308 308 308 309 310 314 315 311 311 311 311 311 311 312 313 315 317 318 320 321 322 323 323 324 325 323 320 317 318 319 321 325 326 324 318 314 312 312 313 313 314 314 315 315 316 316 316
329 320 314 316 318 321 324 327 328 329 330 331 331 332 332 332 332 332 332 332 332 331 330 329 327 325 321 320 318 315 313 311 309 308 308 308 308 308 308 308 308 309 312 315 314 311 311 311 311 311 311 311 312 313 315 317 319 321 322 323 323 324 325 323 320 319 322 323 323 326 327 324 322 319 314 312 313 313 313 314 314 314 315 316 316
330 323 314 315 318 321 324 326 328 329 330 331 332 332 332 333 333 333 332 332 332 331 330 328 325 322 319 318 317 313 311 310 308 308 308 308 308 308 308 309 309 310 314 315 313 310 311 311 311 311 311 311 311 312 313 316 318 320 322 323 323 324 325 326 324 324 326 327 326 326 325 323 326 324 316 313 314 314 314 314 314 315 315 316 316
332 326 317 314 316 320 323 325 325 327 330 331 332 332 333 333 334 333 333 333 332 331 329 326 324 321 318 317 314 311 310 309 308 308 308 308 308 308 308 309 310 311 314 314 312 310 311 311 312 311 312 311 311 312 312 315 318 320 320 322 323 325 327 328 328 327 328 327 327 327 325 325 329 325 315 313 314 314 315 315 315 316 316 316 316
333 328 319 313 315 319 323 325 325 326 329 332 333 333 333 334 334 334 333 333 331 330 327 325 322 319 317 316 313 310 309 309 308 308 308 308 308 308 308 308 310 311 313 313 311 310 310 311 311 312 312 312 312 312 312 314 315 315 316 320 323 325 328 330 329 327 326 327 329 330 329 330 332 326 320 320 318 314 315 316 316 317 317 317 317
333 328 320 314 314 317 321 325 326 328 331 333 333 333 334 334 335 334 333 332 331 329 326 324 321 318 316 315 312 310 310 309 309 309 309 309 308 309 308 309 310 311 312 312 310 310 311 311 311 312 312 312 312 312 312 312 313 312 314 320 323 325 328 329 328 327 327 330 331 331 332 332 331 330 328 330 327 321 316 315 317 318 318 318 319
332 327 321 317 315 315 318 322 325 327 330 331 332 334 335 335 335 334 333 332 330 328 325 324 321 317 316 315 313 312 312 312 312 312 312 311 310 309 308 308 309 312 312 312 312 312 312 312 312 313 312 313 313 313 314 313 314 313 315 318 321 324 326 329 330 330 330 330 330 331 332 331 331 331 332 332 331 329 321 316 317 318 319 319 320
332 329 325 321 318 316 316 318 321 324 327 329 332 335 336 335 334 333 332 330 329 327 325 321 318 316 315 317 317 315 316 316 315 314 314 314 313 311 310 309 310 311 313 314 314 314 314 315 314 314 314 315 316 316 316 316 317 317 317 317 319 324 327 330 330 329 330 329 330 331 331 331 332 332 332 332 331 332 327 319 317 319 320 320 321
332 330 328 326 324 320 317 316 319 322 326 329 333 335 335 335 333 332 330 329 328 326 322 318 316 316 316 318 319 317 318 319 318 318 319 320 319 318 315 311 310 310 312 314 315 316 316 316 316 317 316 316 317 318 320 322 322 322 323 321 320 322 324 327 326 327 331 330 330 331 331 332 333 332 332 332 331 331 329 323 321 321 320 321 323
332 332 330 330 328 326 322 318 318 322 325 328 331 332 332 332 330 330 330 328 325 320 317 315 317 318 319 322 323 320 321 323 324 326 327 329 328 327 324 319 316 314 313 312 312 314 315 315 315 315 315 316 317 318 321 327 328 328 327 326 325 324 324 326 327 329 331 329 330 331 332 332 332 332 331 331 331 330 328 325 324 322 320 322 325
333 333 332 332 331 330 326 322 319 319 322 323 325 326 327 328 329 329 329 325 319 317 318 320 323 324 325 328 328 325 325 328 330 331 331 332 332 331 330 328 327 324 321 318 316 315 316 316 315 314 318 323 325 323 324 328 330 330 329 328 329 329 330 331 330 331 331 330 331 332 332 333 332 332 332 331 330 329 328 327 327 323 321 323 325
334 334 333 333 332 332 330 326 323 320 319 319 318 320 322 326 328 329 327 322 318 319 323 326 328 330 330 330 330 329 329 331 332 333 332 333 333 332 332 332 332 331 329 327 325 325 324 323 320 320 325 328 329 329 328 329 329 330 330 330 329 330 332 332 332 331 331 331 331 332 333 333 333 333 332 331 329 329 329 330 330 327 325 326 327
334 334 334 334 334 333 333 331 329 326 322 319 316 316 321 327 329 328 326 323 320 320 324 327 328 329 330 331 331 332 332 332 332 332 332 333 334 333 333 334 333 333 333 333 331 331 330 330 328 327 329 330 330 331 330 330 330 331 332 333 332 331 330 331 332 333 332 332 332 333 333 333 333 332 331 330 330 330 331 331 331 331 330 330 330
336 336 336 336 336 336 336 335 334 332 328 321 316 317 323 328 328 326 326 328 325 322 327 329 326 327 330 332 333 334 334 334 333 332 332 333 333 334 333 334 335 333 334 334 333 333 333 333 332 331 332 332 332 332 331 332 332 332 333 333 333 332 330 330 331 332 332 332 332 332 333 332 332 331 332 332 332 332 332 332 332 332 333 333 332
340 340 339 339 339 339 339 338 335 330 331 324 316 318 324 327 327 326 327 330 330 327 329 329 327 329 331 333 334 335 335 335 334 333 333 333 334 334 333 334 336 334 334 334 333 333 333 333 333 333 333 333 332 332 332 332 332 333 333 333 333 333 332 331 330 330 331 330 331 331 332 332 332 333 333 333 332 332 332 332 332 332 332 334 333
341 341 341 341 341 340 337 336 331 323 324 320 315 320 325 327 327 328 329 331 331 329 330 331 332 333 333 333 334 334 335 335 335 334 334 333 334 333 333 334 334 334 334 334 334 333 333 333 333 333 333 333 332 332 333 333 333 333 333 333 333 334 333 333 332 332 331 330 331 332 332 333 333 334 334 333 333 332 332 332 332 331 332 333 333
341 341 341 341 341 339 336 334 330 324 319 316 318 322 324 326 329 331 332 333 333 331 332 333 332 333 333 333 333 334 334 334 334 334 334 334 333 332 333 334 333 332 333 332 333 333 333 333 333 334 334 334 334 334 334 334 334 333 333 333 334 334 334 333 333 334 333 333 333 333 333 333 333 334 334 333 332 333 332 332 332 332 332 333 333
341 341 340 341 340 339 337 334 330 329 328 323 323 325 325 328 330 333 334 333 333 334 333 331 329 330 331 333 334 334 333 333 334 334 334 334 332 332 333 334 332 332 333 333 333 333 332 332 332 333 333 333 334 334 334 334 334 334 334 334 334 334 334 334 333 334 334 334 334 333 333 333 333 334 334 334 333 333 333 333 333 332 333 333 333
341 341 341 340 340 339 338 334 330 332 333 331 329 330 332 332 331 333 334 332 332 332 331 328 328 330 331 334 334 332 332 332 333 334 334 333 333 333 333 333 332 331 333 332 331 332 331 331 331 332 331 331 331 331 331 331 331 332 333 333 332 332 333 333 333 333 334 334 334 333 333 333 333 334 334 334 334 334 333 333 333 333 333 333 333
340 340 340 339 339 338 337 334 332 333 333 333 332 334 335 334 334 334 334 332 331 330 328 327 329 332 334 335 334 333 333 332 332 333 333 333 333 333 333 333 332 331 331 331 331 331 332 332 332 332 332 332 331 332 331 330 330 330 330 330 330 331 332 332 332 333 334 333 332 332 332 332 332 333 334 334 334 334 334 333 333 333 333 333 333
338 339 338 338 337 336 335 333 333 334 332 332 333 334 336 336 335 334 333 332 331 331 328 328 331 333 335 333 333 333 332 332 332 332 333 333 333 334 334 334 334 332 332 333 333 332 333 333 333 333 333 332 332 332 331 331 331 330 330 330 330 330 331 331 332 332 332 332 331 331 331 330 331 332 333 333 332 332 332 333 333 333 333 333 333
336 337 337 335 335 333 331 331 332 333 332 332 333 334 336 336 335 334 333 331 330 332 331 331 333 333 333 332 332 331 329 330 331 331 332 334 334 334 334 334 334 333 332 333 333 332 331 332 332 332 332 331 330 330 330 330 329 330 330 330 331 330 331 331 331 331 331 331 331 331 330 329 330 330 331 332 331 331 331 332 332 332 332 332 332
334 336 335 333 332 329 329 329 330 332 332 332 333 334 335 335 334 334 333 331 331 333 333 333 334 333 333 332 330 330 327 328 330 329 330 333 334 334 334 334 333 332 332 332 332 331 330 330 331 331 331 330 329 328 328 328 327 328 330 330 330 329 329 329 330 330 330 330 330 331 330 328 328 329 329 330 330 331 332 332 332 331 330 330 330
333 334 333 332 330 329 330 328 328 331 333 333 334 334 335 334 334 333 332 333 332 334 334 334 334 333 333 332 330 329 327 327 329 330 331 333 334 334 334 333 333 333 333 332 331 330 329 330 331 331 331 330 329 329 329 328 328 328 329 330 329 327 327 328 328 329 329 329 330 331 330 329 329 329 329 330 331 332 333 333 332 332 331 331 331
332 331 331 331 331 332 331 327 327 331 334 334 333 334 334 334 334 333 333 334 334 334 334 334 334 333 332 331 330 328 327 329 330 330 331 333 333 334 334 333 333 333 332 332 332 331 330 330 331 332 331 330 329 329 328 328 327 328 328 328 328 327 328 328 327 328 328 329 331 332 332 331 331 330 331 331 332 333 333 333 333 332 331 331 331
332 331 331 332 332 333 332 329 328 332 335 334 334 334 335 335 335 335 334 335 335 334 334 334 334 332 331 330 329 327 328 330 331 330 330 331 332 333 334 333 333 332 332 332 331 331 331 331 332 332 331 330 329 328 328 328 328 328 328 327 327 327 327 326 326 328 329 330 331 333 332 331 331 331 331 332 333 334 334 333 333 332 331 331 331
333 332 332 333 333 333 334 332 331 333 335 334 334 336 336 335 335 334 335 335 335 334 334 334 333 332 330 329 330 329 330 331 330 329 330 330 330 331 332 332 332 332 332 331 331 331 331 331 332 332 332 330 329 328 328 328 328 328 328 327 326 327 327 326 328 329 329 330 331 333 333 332 331 330 331 332 332 333 333 333 332 332 331 331 331
335 334 333 334 334 333 334 334 334 335 336 335 335 336 335 335 335 334 335 335 335 334 334 334 333 332 331 330 332 331 331 330 329 329 329 330 330 331 331 331 331 331 331 331 332 332 332 332 332 333 332 331 330 329 328 328 327 327 327 326 327 327 326 326 328 328 329 330 332 334 333 331 330 330 331 331 331 332 333 332 331 331 330 330 330
336 335 334 335 335 334 334 334 335 336 335 334 335 335 334 334 334 335 335 335 334 334 334 334 334 333 332 333 333 332 332 332 330 330 330 331 331 331 331 331 331 332 332 332 333 332 332 333 332 332 331 330 330 329 328 327 326 324 323 324 326 326 324 325 327 328 330 331 332 333 331 329 329 329 329 330 330 330 331 330 329 329 329 329 329
336 335 335 335 335 334 334 334 335 335 335 334 334 334 334 335 335 335 335 334 334 334 334 334 334 333 334 334 333 334 334 333 333 332 333 332 332 332 332 332 332 332 333 332 332 332 332 331 331 331 331 330 329 327 325 324 324 322 321 320 321 321 322 324 328 330 331 330 330 330 329 328 328 328 328 329 329 329 329 328 328 327 327 327 328
337 336 335 335 335 334 335 335 335 335 335 334 334 334 334 335 335 335 334 333 334 334 334 334 335 334 334 334 334 334 335 334 333 333 333 332 332 331 332 332 332 332 331 331 331 331 330 330 330 330 329 328 327 325 322 321 321 320 320 319 319 319 319 322 326 330 330 328 327 327 327 327 326 326 327 327 328 328 327 327 326 326 326 325 326
337 336 335 335 336 336 336 335 335 335 334 334 334 335 334 335 335 334 334 333 333 334 334 335 335 335 334 333 334 334 333 332 331 331 330 330 330 330 330 330 330 329 330 329 328 327 327 327 327 326 323 320 320 318 317 317 316 316 317 318 319 319 319 318 320 323 324 322 322 321 322 322 322 321 322 324 325 326 326 326 325 324 323 323 324
337 336 336 335 336 336 336 335 334 334 334 333 334 334 334 334 334 334 334 334 333 334 334 334 334 333 333 333 333 332 332 331 330 329 329 329 329 329 328 328 328 328 328 327 324 323 322 322 321 318 315 314 313 312 313 313 313 315 316 317 318 318 319 318 316 316 316 316 316 315 315 315 314 314 314 315 317 319 321 322 321 320 319 320 322
336 335 335 336 336 335 335 335 334 333 334 333 333 333 334 333 333 333 334 333 332 333 333 332 331 330 330 330 329 329 329 329 328 328 328 328 327 327 327 327 327 327 325 323 320 319 317 315 314 313 312 311 311 310 310 310 313 316 317 318 318 318 318 317 316 315 313 312 311 310 309 307 306 305 305 306 307 308 310 312 313 313 313 314 316
336 335 335 336 335 335 335 335 334 334 333 333 333 333 333 333 332 332 332 331 331 331 330 330 329 329 328 327 327 326 326 326 327 327 326 327 327 326 325 325 324 323 321 319 317 315 313 311 311 310 310 309 309 308 308 307 311 315 317 318 319 318 318 317 316 314 311 308 307 306 303 302 302 302 302 301 301 301 301 302 303 304 305 306 308
335 336 336 336 335 334 334 334 334 334 334 333 333 333 333 332 332 332 331 331 331 331 330 329 329 328 327 326 325 324 324 324 324 324 324 324 325 323 321 320 320 319 316 314 312 310 309 309 309 308 307 307 306 306 305 304 306 309 311 313 314 315 315 315 313 310 307 305 303 302 302 301 300 301 300 299 299 299 298 298 299 299 300 300 301
335 336 336 335 335 334 334 334 334 334 334 334 333 333 332 332 331 331 332 333 332 332 331 329 327 326 325 323 323 322 323 322 321 321 322 322 322 319 316 315 315 313 312 310 309 307 307 306 305 305 304 304 303 302 302 301 302 303 305 306 307 308 308 308 307 304 301 301 300 301 301 301 301 300 299 298 298 297 298 297 298 297 297 298 298
335 336 335 335 335 334 334 333 333 333 333 333 333 333 332 332 332 332 333 333 332 332 330 327 325 324 323 323 322 321 321 320 320 321 320 319 318 315 312 312 311 309 309 308 306 304 303 303 302 302 301 301 301 301 300 300 300 302 304 305 306 306 306 304 303 301 300 300 300 299 298 299 300 299 298 298 297 297 297 297 297 297 297 297 297
335 335 335 334 334 334 333 333 333 333 333 333 333 333 333 333 333 333 333 333 332 331 329 326 324 324 323 322 321 320 319 319 320 319 317 315 313 310 309 309 308 308 307 305 303 302 302 301 301 300 300 300 300 300 299 300 301 303 305 306 306 306 305 303 301 300 299 300 299 297 296 296 297 298 298 297 297 297 297 296 296 297 297 296 297
Wind_Speed
20 17 15 13 13 12 11 13 15 16 16 15 15 15 15 16 17 17 17 17 16 15 14 13 12 11 12 12 13 13 13 12 12 12 12 13 12 12 11 11 11 10 10 10 9 10 11 11 11 12 13 13 12 12 13 15 16 17 17 17 18 19 19 18 16 16 15 14 13 13 14 15 16 15 15 14 14 14 13 13 14 14 14 15 15
22 17 15 14 14 13 12 14 16 17 17 16 16 16 16 17 17 17 17 17 16 16 14 13 12 12 12 12 12 12 12 12 11 11 12 12 11 11 10 10 10 10 11 12 11 11 12 12 12 13 14 14 14 14 15 16 18 19 19 19 19 20 19 18 17 16 15 14 14 13 14 15 14 14 13 13 13 12 12 12 13 14 14 15 15
19 17 16 15 14 13 13 15 17 17 17 17 17 16 17 17 18 18 17 17 16 16 15 14 13 12 12 12 12 11 11 11 11 11 11 12 11 10 9 10 10 10 11 12 11 11 12 13 14 15 15 16 16 17 18 19 19 20 20 20 20 19 19 18 18 17 16 15 15 15 14 13 13 12 12 11 11 11 11 12 13 13 14 14 14
16 16 15 16 15 15 15 16 18 18 18 18 17 17 18 18 18 17 17 16 16 16 15 14 13 12 12 12 12 11 11 11 10 11 11 11 10 9 9 10 10 10 9 9 12 11 12 14 15 16 16 17 18 20 21 21 21 21 21 20 20 19 18 18 17 17 16 16 16 14 13 12 11 11 11 10 10 10 12 13 13 13 14 14 15
16 15 15 16 16 16 17 17 18 18 18 18 18 18 19 19 18 17 17 17 16 15 14 13 13 12 11 11 11 11 11 10 10 10 10 10 9 9 9 9 9 9 7 8 12 12 12 14 16 17 17 18 20 22 23 22 22 21 21 20 19 18 17 17 16 16 16 16 15 13 13 11 9 9 9 10 10 10 12 13 13 14 14 15 16
15 15 16 16 17 18 18 19 19 19 19 19 19 19 19 18 17 17 17 16 16 15 14 13 13 12 11 11 11 10 10 10 10 9 9 9 9 8 8 7 7 7 5 6 10 10 11 14 17 18 18 18 20 21 22 22 21 21 20 19 18 17 16 15 15 15 15 15 14 13 13 12 10 9 9 9 10 10 12 13 13 13 14 15 16
15 16 17 17 18 19 20 20 19 19 19 19 19 19 19 18 17 17 17 16 16 15 14 13 12 12 11 10 10 10 9 9 9 8 8 8 7 7 6 5 5 4 3 5 8 9 11 15 18 18 18 19 20 20 20 21 20 20 19 18 16 15 14 13 13 14 14 14 14 13 13 12 11 10 9 9 10 11 12 13 13 13 13 14 15
16 17 18 18 19 20 21 21 20 19 19 19 20 19 19 17 17 17 17 16 15 15 13 12 11 11 10 9 9 8 8 7 7 6 5 5 4 4 2 2 2 1 2 4 6 9 12 15 18 19 19 19 19 19 20 20 19 18 17 16 15 13 12 11 11 12 12 12 12 12 13 12 11 10 10 10 10 11 12 12 12 12 12 13 14
17 18 18 19 20 21 21 21 20 19 19 20 20 19 18 17 17 17 16 16 15 14 13 12 11 10 9 9 8 7 6 6 5 4 3 3 2 1 1 1 1 0 1 4 7 9 12 15 17 19 19 19 19 19 19 18 18 17 16 15 13 12 10 9 8 9 9 10 11 12 12 12 11 10 9 10 10 11 11 12 12 12 12 12 12
18 19 19 19 21 22 22 21 20 20 19 20 19 18 18 17 16 16 16 15 14 13 12 11 10 9 8 7 6 5 5 4 4 3 3 3 2 2 2 2 2 3 4 5 8 10 13 15 17 18 18 18 19 18 18 17 16 15 14 13 12 10 9 7 7 8 8 9 10 11 12 12 12 11 9 9 10 11 12 12 12 12 12 11 11
19 20 19 20 21 22 22 21 20 20 20 19 19 18 17 17 16 16 15 14 14 13 12 11 9 8 7 6 5 4 4 4 4 4 4 4 4 4 4 4 4 5 6 7 9 11 13 15 16 17 17 17 17 17 16 15 15 14 13 12 11 10 8 6 5 6 8 8 9 9 10 11 12 12 10 10 10 11 12 12 12 13 12 11 10
21 21 20 21 22 22 22 21 21 20 19 19 18 18 17 17 16 15 15 14 13 12 11 10 8 7 5 4 4 4 4 4 4 5 5 4 5 5 5 4 5 5 6 8 10 12 13 15 16 16 16 16 16 15 15 15 14 13 12 11 10 10 7 4 3 5 7 8 8 9 10 11 12 12 10 10 10 11 12 11 12 13 13 12 11
22 21 21 22 23 22 22 21 20 20 19 19 18 17 17 16 15 14 14 13 12 11 10 9 7 5 5 4 4 5 4 5 6 6 6 5 6 5 5 5 5 5 6 9 11 12 13 15 16 15 15 15 15 15 15 14 13 12 11 10 9 8 6 3 2 3 6 8 9 10 10 10 11 13 11 10 10 11 12 12 12 13 13 13 12
21 20 20 21 23 22 22 21 20 19 19 18 17 17 16 16 15 14 13 12 11 10 9 7 6 5 5 5 5 5 5 7 7 7 7 6 7 6 6 5 5 6 7 10 12 12 13 14 15 15 15 14 14 13 13 13 12 11 10 9 7 7 6 3 1 3 5 6 8 9 9 9 11 14 13 11 11 11 12 13 13 14 14 14 13
18 18 18 20 21 22 21 20 19 18 18 18 17 16 16 15 14 13 13 12 11 9 8 6 5 5 5 5 6 6 7 8 8 9 8 8 8 7 7 5 5 5 7 10 11 12 12 13 14 14 14 13 13 12 11 11 11 10 9 8 6 6 6 3 1 3 4 5 6 7 9 10 12 14 13 11 11 11 12 13 13 14 14 14 14
17 17 17 19 20 21 20 19 18 17 18 17 17 16 15 14 14 13 12 11 10 8 7 6 5 5 5 6 7 8 8 8 9 10 9 9 8 8 7 6 5 5 7 9 10 11 11 11 12 12 12 12 12 11 11 10 10 9 7 6 5 6 5 3 1 2 2 4 5 7 9 11 13 13 12 12 12 12 12 13 13 13 14 14 14
16 17 17 17 19 20 20 18 17 17 18 17 16 16 15 14 13 12 11 10 9 7 6 5 5 5 5 6 8 9 9 9 9 10 10 10 9 8 7 6 5 5 6 8 9 9 9 10 10 10 9 9 10 10 10 10 8 6 5 5 5 5 4 3 2 2 2 4 5 7 9 11 13 13 13 14 15 15 14 13 13 13 13 13 13
16 17 17 17 18 19 19 18 17 18 18 17 16 15 15 14 13 12 10 9 8 7 5 5 4 5 6 7 9 10 10 10 10 10 10 10 9 9 8 7 6 6 6 7 8 8 8 8 8 8 8 7 7 8 8 8 6 5 4 5 5 4 4 3 4 4 3 4 5 6 8 12 14 14 15 16 17 17 16 14 14 13 13 13 14
17 17 16 16 17 17 18 17 18 18 18 17 16 15 14 13 12 11 9 8 7 6 5 5 5 5 7 8 10 11 11 10 10 10 10 10 9 9 9 8 7 6 6 6 6 6 5 6 6 6 6 6 6 5 6 5 5 4 4 4 4 4 4 4 5 5 5 6 5 6 8 12 14 15 16 17 18 17 17 15 14 14 15 15 15
17 16 15 15 15 15 16 16 17 17 17 17 16 15 14 13 11 10 9 8 7 6 6 5 6 7 8 9 10 11 11 10 10 10 10 10 10 10 9 9 8 7 6 6 5 4 4 4 4 4 4 4 4 4 4 4 4 4 4 3 4 5 4 4 4 6 7 7 6 6 8 11 13 14 15 17 18 18 17 15 14 16 18 17 15
18 16 15 14 14 14 14 15 16 16 16 16 15 15 14 13 11 10 9 8 7 6 6 7 8 9 9 9 10 10 11 11 11 10 10 9 9 10 9 9 9 8 7 6 5 4 3 3 2 2 1 1 2 3 4 4 4 3 3 2 3 5 5 5 6 8 7 7 6 7 9 11 13 15 16 17 19 19 18 16 16 19 20 18 15
19 17 15 14 14 14 14 15 16 16 16 15 15 14 14 13 12 11 10 8 8 7 8 9 9 8 8 8 9 9 10 10 10 9 8 8 8 9 9 8 8 8 8 7 6 5 4 3 2 1 1 1 1 3 5 3 2 2 2 1 1 1 3 4 6 7 7 8 7 8 11 12 14 16 18 19 20 20 19 18 18 19 18 16 15
20 17 16 15 14 14 14 14 15 15 15 14 14 14 14 14 12 11 10 10 9 10 11 11 10 8 7 7 7 8 9 8 8 7 7 7 7 7 7 7 7 6 6 7 7 7 6 5 4 3 3 2 2 2 4 1 2 2 3 3 3 3 4 5 5 6 7 9 9 10 12 14 16 18 19 20 20 20 19 18 18 18 16 16 16
22 19 18 17 16 15 14 14 14 15 15 14 14 14 15 15 13 12 12 12 11 12 12 11 10 8 7 6 6 6 7 6 6 5 6 6 5 5 5 6 5 5 5 5 5 6 6 6 6 6 5 4 3 2 1 3 3 4 6 7 7 6 6 6 6 6 8 9 10 12 13 15 17 19 20 21 21 21 19 18 17 17 16 16 17
23 21 21 19 17 15 15 15 15 15 15 14 15 15 16 16 14 13 13 13 12 12 11 10 10 7 6 6 5 5 5 5 4 4 5 4 3 4 4 4 3 4 4 4 4 4 4 5 6 6 5 3 2 1 1 3 4 5 7 8 8 8 8 8 7 7 8 9 10 12 15 17 18 20 21 22 22 21 20 19 18 17 16 17 17
24 22 21 19 17 16 15 15 14 15 16 15 15 15 16 16 14 14 13 12 11 11 10 9 9 7 6 4 3 4 4 4 4 3 3 2 2 2 2 2 1 2 2 3 2 3 3 4 4 4 4 3 2 2 2 3 5 6 8 8 8 8 9 10 10 9 10 11 12 15 17 18 19 20 21 21 21 21 21 20 19 19 17 17 17
24 22 21 19 18 17 15 14 13 14 16 15 16 17 17 16 14 13 12 11 10 9 8 8 7 4 3 2 1 1 2 3 4 3 1 1 1 1 1 2 1 2 1 1 1 1 2 3 3 3 2 2 2 3 3 5 8 9 10 10 9 9 10 10 11 11 12 13 15 16 17 19 20 20 20 20 21 20 20 20 20 19 18 18 17
25 24 22 21 21 18 14 13 12 13 15 16 17 18 17 16 14 12 10 10 8 7 6 5 4 3 2 3 3 2 1 2 3 3 2 2 2 1 1 2 2 2 1 1 3 2 1 1 0 0 1 3 3 4 5 7 9 11 12 12 11 12 12 12 11 11 12 14 16 18 19 20 20 20 20 20 20 19 19 19 19 19 18 18 18
28 26 25 24 22 19 15 14 14 14 14 16 18 18 17 16 14 12 10 9 7 5 5 5 6 7 7 6 5 3 2 2 1 1 2 2 1 1 1 2 2 1 1 2 3 3 3 3 3 3 4 6 6 6 7 8 9 10 12 12 12 13 14 13 11 11 11 13 15 17 19 20 19 19 19 18 18 18 18 18 18 17 17 17 18
29 27 27 25 22 20 16 15 16 15 14 16 18 18 17 16 14 12 11 10 9 7 7 8 8 9 9 7 6 6 6 4 2 0 0 1 1 0 2 2 1 1 1 2 2 2 3 4 4 5 6 7 7 7 9 10 10 11 11 12 13 13 13 13 12 11 11 13 14 15 16 17 18 18 17 16 16 17 18 18 18 17 17 17 18
28 27 26 24 23 20 18 17 18 18 16 16 17 16 15 13 13 13 12 10 10 9 8 8 8 8 7 6 6 7 8 8 6 3 3 3 2 2 3 3 2 1 2 2 2 2 3 4 4 5 6 6 6 7 9 10 10 11 12 12 13 13 12 13 13 13 13 14 15 16 16 17 17 16 16 16 16 17 18 17 17 17 17 17 17
28 27 25 23 23 21 20 20 19 18 18 17 15 15 15 14 13 14 13 11 11 10 9 8 8 8 7 7 6 6 6 8 10 7 4 3 3 2 2 2 2 2 1 2 3 3 4 4 4 5 5 6 7 8 9 9 10 10 11 12 12 12 12 13 14 15 16 16 17 16 16 16 16 16 15 16 17 17 17 16 16 17 17 17 17
26 25 25 24 24 23 23 23 21 19 19 18 16 15 16 16 16 15 13 12 11 9 8 7 8 9 8 8 7 5 5 6 8 8 6 3 2 2 2 3 2 3 2 3 4 4 5 5 6 6 6 7 8 8 10 10 10 10 10 11 12 12 12 13 14 15 16 16 16 15 15 15 15 15 16 16 16 16 15 16 16 16 16 16 17
24 26 26 26 26 26 25 25 24 22 21 20 19 17 17 17 18 16 14 13 10 8 8 7 8 9 8 7 7 7 6 6 6 8 7 4 4 4 5 5 4 5 5 5 6 6 6 6 7 7 8 9 9 10 11 11 11 11 11 11 12 12 13 14 14 14 14 14 14 14 13 14 14 15 15 15 14 14 14 15 16 16 16 16 17
24 27 27 27 27 25 24 25 26 25 24 22 20 18 17 17 17 16 14 13 11 9 9 8 8 8 8 9 8 8 7 6 6 6 6 5 6 6 6 6 6 7 7 7 7 7 7 7 8 8 9 10 11 12 13 12 12 11 11 11 12 12 12 13 13 12 11 11 11 11 12 13 13 13 13 14 13 13 13 14 15 16 15 16 16
23 27 28 28 26 23 21 23 26 26 24 21 19 18 16 16 16 16 14 13 12 11 10 9 9 9 9 10 10 9 9 8 7 6 6 6 7 7 7 7 7 8 8 8 9 9 8 9 10 10 10 11 12 13 13 13 12 11 11 10 10 11 11 11 10 9 9 8 7 9 10 11 12 13 14 14 14 14 14 15 16 16 16 16 16
22 25 29 28 25 23 20 22 26 25 21 19 18 17 16 16 16 15 15 13 12 11 11 10 10 10 10 10 11 10 11 10 8 7 7 7 8 8 8 8 8 8 9 9 10 10 9 9 10 11 12 12 13 13 13 13 12 11 10 10 10 9 9 9 9 9 7 5 3 5 7 8 9 10 11 12 13 13 15 16 17 17 18 19 19
22 25 27 26 24 23 21 22 24 23 19 17 18 17 17 17 16 15 15 13 13 12 12 12 12 12 11 11 12 11 10 9 8 8 8 9 9 9 9 9 10 10 10 11 11 11 11 10 10 11 13 14 14 13 12 11 11 11 10 10 9 8 9 10 9 9 7 5 4 4 6 8 9 10 9 9 10 10 12 14 15 15 16 17 18
23 24 26 25 23 23 22 22 23 21 19 18 19 18 17 17 16 16 16 14 14 14 14 14 14 14 13 12 12 11 10 9 8 8 8 10 11 11 11 11 11 11 12 12 12 13 12 12 11 11 13 15 15 14 13 12 12 11 11 10 9 8 9 10 10 10 9 8 8 8 8 10 11 10 9 9 9 10 11 12 14 15 15 15 14
24 23 24 24 23 22 22 21 21 21 19 20 20 20 19 18 17 17 17 16 16 16 15 15 15 13 12 11 10 9 9 8 8 8 9 11 12 13 13 13 13 12 13 14 14 14 13 13 13 13 14 15 16 16 16 16 15 14 13 13 10 9 11 11 11 11 11 10 10 10 10 10 10 10 10 10 10 12 12 13 13 15 16 15 14
23 21 22 23 22 22 21 20 21 21 20 21 21 20 19 18 19 18 18 18 17 17 16 15 14 12 11 10 9 8 8 8 7 8 10 12 13 13 13 14 15 14 14 15 16 16 15 14 15 15 15 16 18 19 19 19 19 18 16 13 11 11 13 12 11 11 10 10 10 10 10 9 9 9 9 10 10 11 11 11 11 12 14 14 14
22 21 21 21 21 22 22 21 21 21 20 20 19 18 18 18 19 18 18 19 17 16 15 14 13 12 11 9 8 8 8 7 8 9 11 13 13 13 13 14 15 15 16 17 17 18 18 17 17 16 17 18 19 20 21 20 20 20 19 16 13 12 14 13 11 10 9 9 9 11 10 9 10 10 10 10 10 9 9 9 9 10 11 12 13
20 20 21 21 21 21 21 21 21 21 20 19 18 17 17 17 17 18 18 18 17 16 14 13 12 11 10 9 8 7 7 8 9 11 12 14 14 15 15 16 16 17 18 19 20 20 20 20 19 17 17 18 18 19 20 20 20 20 18 16 14 12 12 13 12 11 10 11 12 13 12 11 12 13 14 13 12 11 10 10 9 11 12 12 13
20 20 22 22 21 21 20 21 21 21 20 19 18 17 17 17 17 18 18 17 17 16 14 13 12 11 9 8 9 9 9 10 11 12 13 14 15 17 18 18 19 19 20 20 20 20 19 19 18 16 14 13 14 15 16 17 18 17 13 11 12 13 11 12 13 12 12 14 15 15 15 15 16 17 17 17 16 16 14 13 14 15 14 14 15
21 22 23 22 21 21 21 21 21 21 20 19 18 17 18 19 19 19 18 16 16 15 14 13 13 11 10 10 11 11 12 12 12 13 14 15 16 18 19 20 20 20 20 19 17 16 14 13 13 12 10 9 9 9 10 11 13 13 11 9 8 8 10 15 17 15 13 14 16 16 17 17 18 18 18 18 18 18 17 17 17 17 16 16 17
22 23 23 21 21 21 21 21 21 21 20 18 17 18 18 18 18 18 18 16 15 14 13 12 11 10 10 10 11 12 13 13 14 15 15 15 15 16 17 18 18 18 17 15 13 11 9 8 8 8 8 8 7 7 7 8 8 9 9 8 5 5 11 16 18 18 19 18 16 15 17 18 18 17 16 16 16 16 16 17 17 17 16 16 18
24 24 23 21 21 21 21 21 21 20 19 18 17 18 18 17 17 16 15 14 15 14 13 12 11 10 10 10 12 13 13 13 14 14 14 14 13 13 14 14 14 13 12 11 9 7 5 5 5 5 6 7 6 6 5 5 4 4 4 5 4 6 11 14 14 18 21 21 18 16 16 16 17 17 16 16 16 15 15 15 15 16 15 16 18
25 24 22 22 22 22 22 22 21 21 20 19 19 18 18 17 16 15 14 13 12 12 12 11 9 9 10 11 12 11 11 12 13 13 13 12 11 10 11 11 10 8 7 5 4 3 3 3 3 4 5 5 6 5 4 4 2 2 1 1 3 6 8 9 9 11 15 20 22 20 17 16 16 16 17 18 18 18 17 17 16 16 15 16 18
25 24 23 23 23 23 23 23 22 22 21 21 20 19 18 17 16 15 15 14 12 10 10 9 8 9 10 10 11 9 9 10 11 12 12 10 9 8 8 8 6 4 3 2 2 2 2 2 2 3 4 5 5 5 5 4 3 3 2 1 1 2 4 5 6 7 8 13 18 21 21 20 18 17 18 20 20 19 19 19 18 18 17 18 18
24 24 24 24 24 24 24 23 23 22 21 21 20 20 18 17 16 16 16 15 13 11 10 10 9 10 10 10 10 9 8 10 11 11 10 8 6 5 5 5 4 3 2 2 1 1 1 2 2 3 3 4 4 4 4 5 5 4 4 3 3 4 6 7 8 9 8 9 12 18 20 21 22 22 21 21 21 21 20 19 20 20 20 20 20
25 26 26 25 24 24 24 23 23 22 21 21 20 19 18 16 15 15 15 14 13 12 12 11 11 12 12 11 10 10 10 11 11 8 6 4 4 5 4 4 4 3 2 2 1 2 2 2 2 3 3 3 3 4 4 4 4 4 5 6 8 9 10 11 12 11 11 11 12 16 18 19 20 22 23 24 23 21 21 20 21 22 22 22 22
Wind_Direction
173 175 166 151 139 137 135 134 132 135 137 138 136 132 130 128 128 126 126 125 127 128 128 126 120 113 107 104 100 98 96 95 94 94 94 95 95 97 96 85 75 68 58 51 57 63 64 64 69 88 104 111 108 105 101 100 102 102 102 102 102 101 99 97 95 92 88 82 74 67 71 76 74 71 69 65 62 57 51 50 47 43 42 41 39
166 167 160 147 139 139 138 137 135 138 139 138 135 134 132 131 129 127 128 127 129 129 128 125 119 113 108 103 100 98 96 96 93 94 95 95 95 97 94 80 70 63 54 49 53 57 61 65 73 92 107 112 110 107 103 102 103 103 104 105 105 102 100 98 95 92 88 83 76 69 68 72 72 69 66 62 59 54 49 49 47 41 39 38 36
166 163 155 144 141 141 139 139 137 139 139 139 136 136 134 132 131 130 129 129 131 130 129 124 118 114 108 104 101 98 96 94 92 95 94 95 96 95 88 76 66 59 54 49 51 53 59 69 81 98 110 113 110 109 106 105 106 106 106 105 104 103 101 99 95 91 86 82 78 74 70 67 67 66 63 59 56 53 49 49 45 39 38 36 32
173 164 156 146 142 142 139 139 139 141 140 139 138 138 136 134 133 132 131 131 132 131 129 123 118 113 109 105 101 99 96 94 94 95 95 95 95 91 83 74 66 59 56 47 48 53 60 72 89 104 112 114 113 112 110 110 109 108 106 105 104 103 103 101 96 91 86 83 78 76 72 66 60 58 57 54 52 47 45 47 43 35 33 31 27
178 168 162 151 144 142 139 141 140 142 142 140 140 139 137 136 135 133 133 133 134 132 130 124 118 112 108 106 101 100 96 94 94 95 95 96 96 91 82 76 67 59 56 40 42 53 66 79 96 107 113 115 116 116 115 114 112 110 108 106 104 104 103 100 97 92 87 83 78 75 70 62 49 45 48 49 48 40 35 39 40 33 29 26 23
182 172 167 157 148 144 141 143 142 144 143 142 141 140 139 138 136 134 135 135 136 133 131 125 118 114 110 105 101 100 96 94 94 96 96 97 97 92 86 80 70 61 55 30 38 58 75 88 101 109 113 116 118 119 118 116 114 112 109 106 105 104 103 100 96 92 86 80 76 71 64 54 41 35 41 46 44 37 31 32 34 31 27 23 20
179 170 166 159 151 146 144 143 144 146 144 144 143 142 141 139 138 136 137 137 137 135 131 126 120 116 111 105 102 101 98 95 95 98 96 94 91 90 92 84 76 66 33 17 42 70 85 95 106 111 114 117 120 121 119 118 115 113 110 108 107 105 102 100 97 91 85 78 71 63 56 46 36 31 32 40 39 33 30 28 29 27 25 22 19
169 166 164 159 153 148 145 144 146 147 146 145 144 144 143 141 139 138 138 137 137 134 131 127 122 117 112 107 105 104 102 98 96 96 91 83 79 84 96 94 98 46 350 21 62 86 93 101 109 113 116 120 122 122 121 120 117 116 114 112 108 105 100 97 95 91 83 74 64 55 49 37 29 28 25 28 31 29 29 26 24 22 20 19 17
166 164 162 161 154 148 145 145 146 148 147 147 146 146 144 143 141 140 138 138 136 133 129 125 121 116 112 109 106 104 101 99 93 85 74 62 59 67 90 130 156 30 39 63 85 98 100 107 113 115 118 123 125 124 123 122 121 120 118 114 109 103 96 92 93 90 81 70 59 48 39 28 21 20 19 18 19 21 22 21 19 18 15 15 13
166 164 162 162 154 149 146 145 147 148 149 148 149 148 146 145 142 140 139 138 135 131 128 124 121 116 113 109 105 101 93 85 76 67 57 48 49 57 64 85 96 101 101 91 98 107 107 110 116 118 119 124 127 127 127 127 125 123 120 116 112 106 98 94 92 86 80 70 59 45 30 22 18 10 9 10 10 11 11 13 10 10 10 10 9
164 163 162 162 155 149 146 146 148 149 150 150 151 149 148 147 143 141 140 138 133 129 127 123 122 118 113 107 98 89 75 65 63 61 58 54 55 59 64 79 94 106 107 103 110 114 112 114 119 121 122 125 129 132 132 132 129 127 124 121 118 111 104 99 92 80 74 67 56 39 21 15 16 6 1 2 2 3 2 3 0 0 2 3 2
163 161 161 161 154 149 147 147 149 150 152 153 153 151 149 148 146 144 141 137 132 129 127 124 122 116 108 97 84 71 61 64 70 72 70 69 65 63 68 82 95 106 111 115 120 119 116 118 121 123 123 125 130 135 136 135 133 132 128 125 122 115 108 99 79 66 66 65 52 29 12 6 9 5 357 355 355 355 354 354 350 351 354 354 355
162 160 161 158 152 148 147 147 150 152 154 156 155 153 151 151 148 145 141 136 132 129 127 125 118 110 100 84 73 67 70 78 79 80 78 72 69 68 73 84 98 111 119 125 128 123 121 121 122 125 124 125 128 131 135 136 135 134 133 130 125 116 110 96 39 43 55 62 52 23 5 359 2 1 353 349 348 348 346 344 341 343 346 346 348
159 157 158 155 151 148 148 149 152 154 156 158 157 155 154 153 150 145 141 137 133 132 128 122 114 103 90 78 73 72 78 83 83 82 79 75 72 71 73 80 98 113 124 131 133 127 126 125 124 126 125 126 128 131 134 137 139 139 139 135 127 120 117 115 14 22 38 52 50 23 360 354 357 357 351 344 342 343 342 342 340 339 340 341 343
156 152 155 155 152 149 150 152 154 157 160 161 160 158 157 154 150 146 142 140 137 134 129 122 113 97 87 81 78 80 84 88 87 85 82 81 78 76 75 79 95 108 123 133 136 130 129 128 127 128 128 128 129 132 136 140 143 143 143 138 133 130 128 143 313 14 25 33 40 14 349 347 351 351 349 346 342 343 344 343 341 340 339 339 341
156 152 154 156 153 152 153 155 158 161 163 163 163 159 158 156 152 149 144 142 139 136 131 121 111 96 92 87 84 87 90 92 88 86 82 82 83 82 81 84 98 107 123 134 136 132 132 132 131 131 131 131 129 130 134 139 145 146 148 145 145 144 139 161 258 350 17 10 16 1 343 340 345 347 350 353 348 346 345 342 341 342 342 340 341
157 154 154 156 154 155 156 156 160 163 165 165 164 162 161 158 154 152 146 143 139 136 129 120 114 102 100 93 90 90 90 89 85 84 79 79 83 84 84 87 102 112 123 133 135 134 135 136 134 134 134 134 134 133 137 143 151 157 162 163 161 157 147 169 250 292 354 353 358 356 341 335 339 341 344 349 348 347 345 341 341 342 344 344 343
154 154 154 156 156 157 158 155 158 162 166 166 166 166 164 161 157 154 146 142 138 134 132 126 119 107 106 100 94 93 89 87 82 81 79 79 82 83 83 85 99 113 122 130 134 135 136 139 139 139 138 138 140 140 143 148 155 156 154 169 175 173 166 188 239 268 304 323 337 347 337 328 331 334 335 339 341 343 344 340 339 342 344 346 346
149 154 153 156 157 158 160 157 159 163 167 168 167 167 167 165 158 153 147 144 142 137 136 129 119 111 112 105 99 97 93 89 84 83 82 81 83 84 83 85 95 109 121 127 130 134 134 139 141 143 143 142 144 143 143 140 138 133 136 165 190 199 195 201 240 273 294 302 316 334 327 321 325 331 333 333 333 337 341 339 339 343 342 341 343
148 155 154 156 157 159 161 159 163 166 170 170 168 167 167 166 158 154 150 148 147 140 137 128 121 117 116 108 105 105 99 93 90 86 84 85 87 86 85 86 94 107 121 129 133 138 139 142 146 147 145 141 141 140 135 130 126 122 129 167 202 210 208 210 255 282 291 301 319 335 324 320 324 328 330 328 327 332 337 336 335 339 336 332 334
151 158 158 157 158 160 162 163 168 171 173 171 169 168 166 165 161 157 155 152 148 143 137 127 124 125 122 111 106 111 104 97 93 89 84 83 86 86 87 90 95 106 116 128 136 142 150 154 160 156 138 149 161 152 138 119 115 113 115 139 209 223 230 238 269 284 287 300 321 335 327 322 322 322 324 322 323 329 333 330 326 330 330 327 330
156 160 160 161 163 165 165 166 171 175 178 177 174 171 166 166 164 160 155 151 146 140 134 128 128 130 129 115 104 109 108 102 95 91 84 77 79 83 87 93 98 104 111 122 132 137 141 144 166 172 141 172 217 183 165 113 78 78 76 78 79 264 273 273 280 283 285 296 310 324 322 320 319 318 318 317 320 324 327 327 326 329 329 327 331
158 163 163 166 169 170 168 168 173 178 182 182 181 178 171 169 167 162 154 149 142 134 130 127 129 128 131 123 111 111 109 105 95 90 83 72 72 78 86 93 101 106 112 119 126 134 136 134 138 135 123 112 88 160 187 288 349 359 355 355 3 352 339 332 315 299 295 297 305 315 317 316 315 314 314 314 318 321 325 329 331 333 332 328 330
161 167 169 171 172 174 170 171 177 179 183 185 186 185 176 173 169 164 158 151 143 137 136 134 134 131 130 127 119 112 103 98 92 92 82 73 75 78 87 93 102 113 120 123 127 136 140 139 141 140 133 119 96 106 222 297 325 344 348 344 339 330 324 326 326 319 310 305 308 313 312 311 309 309 311 313 317 319 323 328 332 333 332 329 327
165 172 173 171 172 176 175 176 180 182 183 185 188 188 179 174 170 166 161 155 154 152 150 147 145 139 133 123 106 88 77 73 69 78 73 77 86 77 87 95 100 111 124 129 131 138 140 140 142 146 146 145 150 174 275 306 325 338 343 343 339 327 312 307 312 313 307 309 311 310 307 307 308 308 311 314 317 318 320 324 327 327 328 328 327
167 172 172 169 171 176 178 177 180 186 185 184 188 189 180 172 169 166 161 159 167 173 169 160 155 145 124 94 64 52 41 36 26 32 59 78 80 60 65 65 71 82 116 125 118 137 147 152 149 145 151 165 195 236 270 302 313 322 327 330 333 327 312 301 300 300 300 307 308 305 303 305 307 308 312 317 319 319 318 320 321 321 322 324 326
166 169 168 166 170 174 176 176 176 184 184 183 187 187 179 170 167 163 161 165 173 186 187 168 157 144 106 63 31 60 29 11 0 354 4 31 27 26 21 348 346 34 72 76 26 80 143 169 164 153 170 204 242 258 279 310 310 311 313 316 323 323 316 308 303 300 298 299 298 298 300 302 306 309 312 316 318 319 318 319 319 318 318 319 321
166 167 170 168 171 172 171 173 174 176 176 177 180 182 177 168 166 162 161 167 174 186 183 170 182 213 223 232 216 179 90 31 356 341 334 356 357 344 359 325 320 22 38 1 339 341 355 307 187 208 273 274 273 279 293 306 301 299 304 308 314 314 311 309 307 306 300 295 293 294 296 299 305 308 309 313 316 318 318 319 319 317 316 317 317
169 170 173 170 171 173 170 172 172 166 164 167 170 175 173 167 166 167 167 169 175 180 174 188 217 220 217 215 194 162 118 79 12 323 327 350 353 324 324 306 320 354 351 341 331 329 325 312 310 295 291 290 288 290 290 290 284 283 289 294 299 302 301 297 298 305 303 299 297 296 296 298 303 306 309 314 318 318 317 318 318 318 317 316 314
171 172 174 171 172 178 179 178 172 162 160 163 165 168 169 167 168 175 178 176 184 192 190 196 208 210 208 204 183 162 151 140 138 238 245 263 259 223 261 261 285 308 300 316 313 311 290 275 280 279 280 282 282 283 280 279 275 273 276 282 288 291 290 287 289 295 297 299 301 300 297 297 300 303 310 317 319 318 317 318 319 320 319 317 314
173 174 174 173 175 182 188 185 177 169 170 170 166 166 167 172 178 182 184 186 196 202 202 201 207 216 210 203 196 179 167 157 150 152 179 210 233 215 230 241 233 214 233 270 272 270 259 254 262 271 279 283 285 283 282 283 280 275 273 278 284 286 284 281 284 289 294 298 300 300 296 294 295 300 308 313 316 317 317 319 319 320 320 318 316
176 176 174 175 178 186 189 187 183 177 179 179 175 175 178 184 190 192 188 191 202 204 206 208 207 222 221 204 201 191 177 163 152 149 172 206 217 215 234 245 258 256 242 268 274 270 266 267 268 273 283 288 289 286 287 291 289 285 279 278 280 282 284 282 286 291 296 300 302 302 297 294 294 298 305 310 313 316 318 320 321 322 321 319 317
174 175 174 176 179 185 186 186 184 182 186 186 187 189 192 197 201 202 193 192 202 200 204 209 208 219 219 207 201 187 175 167 153 145 162 196 205 204 228 226 247 272 268 265 268 266 265 273 277 278 283 284 286 286 288 292 290 290 289 289 287 287 288 287 291 295 299 302 304 306 304 301 300 302 306 309 312 315 318 322 323 323 321 319 318
173 175 176 177 180 182 184 184 181 184 189 191 196 198 200 204 205 206 196 194 203 201 205 210 209 209 202 196 201 197 180 167 156 149 159 181 207 210 218 222 236 256 257 258 262 265 265 272 279 280 282 283 285 285 284 284 285 287 290 293 293 293 292 292 294 298 302 305 307 309 311 311 310 309 311 313 315 317 321 323 324 323 321 320 318
179 180 180 180 180 179 180 182 182 185 187 191 197 196 197 199 201 203 195 196 203 203 208 207 201 195 187 185 191 194 180 176 178 167 166 188 221 228 231 241 254 259 260 263 266 269 271 277 282 284 287 288 286 282 280 283 285 286 288 290 291 292 296 298 298 298 301 306 312 317 319 321 321 322 323 322 324 325 327 329 330 329 328 328 325
183 181 182 180 177 174 175 181 182 184 187 192 194 190 192 194 197 197 191 194 197 198 202 199 193 188 186 185 183 182 180 191 193 176 178 205 229 240 247 251 258 264 266 269 272 274 278 283 287 289 290 289 284 280 281 285 287 286 285 286 288 295 303 304 302 299 300 308 325 335 338 341 341 339 336 332 329 328 328 330 332 333 333 333 331
183 180 179 177 174 173 175 181 182 184 189 193 192 191 195 196 195 191 187 187 185 189 193 191 188 185 186 183 181 184 187 192 189 179 195 219 234 243 247 246 252 263 270 273 275 277 280 281 285 288 288 286 283 281 281 282 283 284 283 286 292 300 303 300 297 295 291 293 321 337 337 338 334 331 329 326 323 324 326 326 329 332 332 331 327
184 181 179 177 176 176 179 184 186 188 191 192 190 191 194 193 190 184 181 179 178 183 185 184 184 184 186 184 185 191 192 190 189 194 211 228 240 246 249 252 256 263 269 273 276 277 278 276 277 280 281 282 282 283 284 282 281 281 284 288 295 301 296 290 286 281 277 268 268 284 290 295 301 304 306 307 307 311 316 315 318 320 322 323 321
185 183 185 183 180 182 185 187 190 192 191 188 187 188 188 185 181 177 176 175 177 180 181 183 184 186 187 188 191 191 194 198 202 212 226 238 247 251 255 258 260 263 268 272 273 275 275 274 272 273 276 280 283 286 289 288 286 286 287 290 293 293 287 283 277 272 270 264 262 264 272 286 295 297 294 294 295 296 298 299 304 310 310 310 308
186 186 190 190 187 188 190 190 191 190 187 185 185 186 184 181 177 175 174 175 178 179 181 183 184 186 187 188 192 195 204 212 217 227 238 246 252 257 261 264 265 268 272 274 274 274 274 272 271 270 273 279 283 288 290 291 291 289 287 289 290 285 278 275 271 271 270 263 261 264 271 284 292 293 290 289 291 293 298 301 308 316 314 310 306
189 192 193 192 191 192 193 190 188 187 186 184 184 183 183 181 177 175 174 176 179 180 179 179 182 185 186 192 200 206 214 221 233 243 246 251 254 259 265 268 270 272 272 273 272 273 273 271 270 271 274 277 282 286 288 290 291 289 286 281 273 270 272 270 262 260 262 259 260 264 270 279 285 288 291 293 295 296 302 312 321 325 321 320 317
192 195 196 194 193 194 194 190 186 186 185 183 182 180 181 181 178 177 177 176 176 179 178 177 183 188 193 203 211 213 216 225 242 249 253 256 258 263 266 268 270 272 272 271 272 273 274 273 272 275 278 280 283 286 289 290 291 292 294 289 275 264 263 260 253 248 250 255 260 266 269 279 288 289 290 294 298 299 305 317 329 330 325 326 326
195 197 197 197 195 195 194 189 186 185 183 182 182 179 178 181 183 181 180 176 172 177 182 184 191 200 207 213 216 217 222 230 239 244 251 257 261 266 267 268 268 270 271 271 273 275 275 276 276 278 280 281 284 287 291 292 291 294 298 299 294 286 270 252 237 235 255 269 271 276 279 286 295 294 293 293 294 296 301 310 318 320 320 322 322
198 199 198 198 198 196 193 189 185 183 182 182 181 179 177 179 185 184 182 179 176 180 188 192 201 213 219 218 217 223 231 237 241 247 253 259 265 268 269 271 271 272 274 274 276 277 277 278 280 282 282 284 286 289 292 294 295 297 301 302 300 302 294 272 259 254 265 277 281 288 291 293 296 295 296 297 297 296 298 303 306 310 315 315 311
198 200 200 200 198 195 192 188 185 182 181 181 182 184 183 181 183 183 181 180 181 187 194 198 203 211 217 219 223 230 238 245 251 256 261 265 267 269 270 272 274 276 276 276 278 279 281 283 284 287 291 295 300 301 302 303 303 305 311 314 308 309 305 298 296 287 283 292 297 300 303 304 305 305 305 304 301 300 299 300 301 303 309 310 302
197 200 201 197 193 190 188 185 184 181 180 182 184 187 190 190 191 188 184 185 188 192 197 201 201 205 214 223 232 240 245 253 259 264 268 269 270 271 269 270 271 272 273 276 281 283 286 289 290 295 301 309 320 325 326 324 317 314 321 329 331 319 305 304 307 302 299 303 306 308 311 314 318 320 321 318 313 310 307 304 302 303 306 305 298
197 201 199 191 187 186 184 184 184 182 182 182 184 188 192 195 198 198 195 196 198 196 198 201 201 207 221 235 245 249 252 257 261 265 268 272 276 275 270 266 264 265 270 277 281 282 287 294 298 302 305 313 324 338 355 358 339 330 333 322 302 291 296 304 313 313 312 310 310 315 318 322 330 333 335 335 332 329 323 317 312 311 310 305 299
197 198 193 186 186 184 182 184 183 183 183 182 183 187 193 197 198 201 200 200 204 205 206 207 209 219 235 250 257 256 257 258 259 262 269 276 279 274 265 258 253 256 265 269 272 285 302 308 309 309 311 317 325 342 13 32 43 65 85 249 257 268 282 296 307 315 315 308 308 315 320 326 335 340 342 343 345 343 338 336 332 326 320 312 307
197 193 187 184 185 184 183 184 183 184 184 183 183 186 195 201 202 204 201 198 207 215 218 221 224 233 243 253 261 265 266 267 270 273 279 284 278 265 251 242 239 241 246 256 285 314 334 332 323 318 318 322 332 350 6 16 39 59 76 152 202 265 287 299 304 313 316 310 313 320 323 324 328 340 346 344 348 350 346 344 340 335 329 322 320
194 187 186 186 184 183 185 184 185 186 186 186 187 189 195 201 204 207 206 206 212 219 227 233 232 241 248 251 260 268 268 273 281 284 285 283 263 240 222 216 218 225 236 263 306 323 331 328 321 318 323 330 345 2 8 14 26 35 32 24 20 8 356 354 354 353 348 336 327 327 328 327 325 334 344 345 349 351 348 347 342 337 335 332 330
188 184 187 188 185 186 187 185 186 188 189 189 190 193 195 199 203 208 213 218 225 232 239 240 239 245 248 250 256 262 268 280 288 285 275 254 211 188 180 191 207 218 232 250 280 303 303 309 317 323 334 351 10 20 25 33 34 32 28 19 13 10 7 7 6 0 355 349 339 333 334 333 328 331 338 342 347 349 348 347 343 339 338 338 336